Location: Bow
(51.5261°N, 0.0167°W)
Time: 03:25:28
(UTC+00:00)

Cosmos 1782 Rocket - Pass Details

Date: 18 September 2020
Orbit: 607 x 632 km, 82.5° (Epoch: 18 October)

Event Time Altitude Azimuth Distance (km) Brightness Sun altitude
Rises 18:43:14 0° 178° (S) 2,885 6.9 -6.5°
Reaches altitude 10° 18:45:28 10° 174° (S) 1,988 6.0 -6.8°
Maximum altitude 18:49:47 58° 96° (E) 732 3.6 -7.5°
Drops below altitude 10° 18:54:11 10° 17° (NNE) 2,018 6.2 -8.1°
Sets 18:56:27 0° 14° (NNE) 2,934 7.0 -8.5°
